Regional Weather Roundup
Issued by NWS

Home | Current Version | Previous Version | Graphics & Text | Print | Product List | Glossary On
Versions: 1 2 3 4 5 6 7 8 9 10 11 12 13 14 15 16 17 18 19 20 21 22 23 24 25 26 27 28 29 30 31 32 33 34 35 36 37 38 39 40 41 42 43 44 45 46 47 48 49 50
000
ASUS45 KSLC 221410
RWRUT

UTAH REGIONAL WEATHER ROUNDUP
NATIONAL WEATHER SERVICE SALT LAKE CITY UT
700 AM MST SUN JAN 22 2017

UTZ001>011-023>025-221500-

NORTHERN UTAH

CITY           SKY/WX    TMP DP  RH WIND       PRES   REMARKS
BRIGHAM CITY     N/A     25  22  88 NW6       29.96F WCI  18
HILL AFB       PTCLDY    26  18  70 SE9       29.94S WCI  17
LOGAN          PTCLDY    21  20  96 E3        29.94S
OGDEN          PTCLDY    25  19  78 S15       29.94S WCI  13
SALT LAKE CITY PTCLDY    27  21  78 SE10      29.96R WCI  17
TOOELE VALLEY  MOCLDY    30  23  74 S21       29.94S WCI  17
WENDOVER       CLOUDY    23  18  80 NE6       29.91F WCI  16
HEBER CITY     PTCLDY    12   9  85 CALM      29.97R
WEST JORDAN    MOCLDY    30  27  86 S15       29.97S WCI  19

$$

UTZ011>015-024>027-221500-

CENTRAL/NORTHEAST UTAH

CITY           SKY/WX    TMP DP  RH WIND       PRES   REMARKS
PROVO AIRPORT  MOCLDY    17  15  92 CALM      30.03R
MOAB/CANYONLAN PTCLDY    28  23  81 CALM      30.05R
DELTA          CLOUDY    27  19  74 S10       29.98S WCI  17
PRICE          MOCLDY    16  11  80 N5        30.01R WCI   9
ROOSEVELT      CLOUDY    19  18  93 CALM      30.07R
VERNAL         CLOUDY    16  11  80 SW7       30.05R WCI   6

$$

UTZ013>016-019>022-027-221500-

SOUTHERN UTAH

CITY           SKY/WX    TMP DP  RH WIND       PRES   REMARKS
BRYCE CANYON   CLOUDY    12   8  84 CALM      30.02S
CEDAR CITY     CLOUDY    30  23  75 S7        29.96F WCI  23
MILFORD        CLOUDY    30  22  72 SW14      29.97F WCI  19
ST GEORGE      MOSUNNY   36  30  80 S5        30.10R WCI  32
HANKSVILLE     CLOUDY    27  23  86 MISG      30.09R
BLANDING       MOCLDY    18  14  85 N7        30.17R WCI   8

$$

REGIONAL REPORTS     COLORADO/ARIZONA

CITY           SKY/WX    TMP DP  RH WIND       PRES   REMARKS
CRAIG, CO      CLOUDY     8   3  80 CALM      30.00R
GRAND JUNCTION CLEAR     25  25 100 CALM      30.06R
RIFLE, CO      CLOUDY    27  22  81 W3        30.04R
MONTROSE, CO   CLEAR     21  16  81 SE12      30.07R WCI   9
CORTEZ, CO     CLOUDY     5   3  91 E6        30.11R WCI  -6
COLORADO CITY    N/A     32  30  93 SE6       30.08R WCI  26
PAGE, AZ       CLOUDY    34  22  61 SE5       30.07F WCI  30
GRAND CANYON   CLOUDY    10   7  87 CALM      30.08F
KINGMAN, AZ    CLOUDY    42  25  50 SE16      30.06F
FLAGSTAFF, AZ  CLOUDY    23  22  96 CALM      30.10S

$$

REGIONAL REPORTS    NEVADA/IDAHO/WYOMING

CITY           SKY/WX    TMP DP  RH WIND       PRES   REMARKS
LAS VEGAS, NV  CLOUDY    47  36  65 CALM      30.03R
ELY, NY        CLOUDY    28  19  69 S22G31    29.86F WCI  14
ELKO, NV       FLURRIES  32  24  72 S20G25    29.78F WCI  20
POCATELLO, ID  CLOUDY    34  23  64 S30G36    29.88F WCI  20
BURLEY, ID     PTCLDY    31  20  63 S6        29.83F WCI  25
FORT BRIDGER,    N/A     19  15  82 W10       29.96R WCI   8
EVANSTON, WY   CLOUDY    14  11  87 SW9       29.92R WCI   2
ROCK SPRINGS,  CLOUDY    16  11  80 SW14      29.93R WCI   2

$$



USA.gov is the U.S. government's official web portal to all federal, state and local government web resources and services.